Theta_e
298 298 297 297 297 297 296 296 296 296 296 296 296 296 296 296 296 297 297 297 297 297 297 297 298 298 298 298 298 298 298 298 298 299 299 298 299 299 299 300 302 307 312 316 317 318 318 319 322 325 327 326 326 327 327 327 328 330 331 331 331 330 331 332 333 334 336 339 338 338 339 340 340 339 339 337 336 335 333 333 331 329 326 322 324
297 297 297 297 296 296 296 296 296 296 296 296 296 296 296 296 296 296 296 296 296 296 296 297 297 297 297 297 297 298 298 298 298 299 299 299 299 299 299 299 299 301 304 309 314 317 318 319 319 321 325 327 327 326 326 327 327 328 329 331 331 330 331 332 332 333 335 337 338 339 339 340 340 339 339 338 336 335 334 332 331 330 327 323 324
297 296 296 296 296 296 296 296 296 296 296 296 296 296 296 296 296 296 295 296 296 296 296 296 296 296 296 297 297 297 297 297 298 298 298 299 299 299 299 299 299 299 300 302 306 310 314 317 319 319 321 325 328 327 325 325 326 326 327 329 331 330 331 331 332 332 334 334 335 337 338 339 340 339 338 338 336 334 333 332 331 330 328 325 324
296 296 296 295 295 295 295 295 295 295 295 295 295 295 296 296 295 295 295 295 295 295 295 295 296 296 296 296 296 296 297 297 297 297 298 298 298 299 299 299 299 299 299 300 301 304 306 310 314 318 319 321 324 327 327 325 325 325 326 327 330 331 330 330 331 332 333 334 334 335 337 339 339 339 339 337 336 335 333 332 331 330 329 326 324
296 295 295 295 295 295 295 295 295 295 295 295 295 295 295 295 295 295 295 295 295 295 295 295 295 295 295 295 296 296 296 296 296 297 297 297 297 298 299 299 299 299 299 299 299 300 302 304 306 311 316 319 320 323 326 326 324 324 325 326 327 329 330 330 330 331 331 333 334 333 335 337 338 339 338 338 335 334 333 332 331 330 329 327 324
295 295 295 295 295 295 295 295 294 294 294 295 295 295 295 295 295 295 295 295 295 295 295 294 294 295 295 295 295 296 296 296 296 296 296 296 296 297 298 298 299 299 299 299 299 299 300 301 301 303 307 314 319 321 323 325 325 324 324 326 326 327 330 331 331 330 330 331 333 333 335 337 338 338 338 338 336 334 333 332 332 330 329 328 325
295 295 295 295 295 295 294 294 294 294 294 294 294 294 294 294 294 294 294 294 294 294 294 294 294 294 294 294 295 295 295 295 296 296 296 296 296 296 297 297 298 298 299 299 299 299 299 299 300 301 301 305 312 318 321 322 324 324 323 324 325 326 328 330 331 331 330 330 332 333 335 337 337 339 338 338 336 334 333 332 331 330 329 328 326
295 295 294 294 294 294 293 293 293 293 293 293 293 293 293 293 293 293 293 293 293 293 293 293 293 293 294 294 294 294 294 295 295 296 296 296 296 296 297 297 297 297 298 298 299 300 300 299 299 300 300 300 303 310 318 322 323 324 325 324 323 324 326 328 330 330 330 330 331 332 334 336 337 338 338 338 336 334 333 332 331 330 329 329 327
294 294 294 294 293 293 293 292 292 292 292 292 292 292 292 292 292 292 292 292 292 292 292 292 292 293 293 293 294 293 293 294 294 295 295 295 296 296 296 297 297 297 297 297 298 299 299 300 299 299 299 300 300 302 308 316 322 324 325 325 323 323 324 326 328 329 330 329 330 331 333 335 337 338 338 337 337 335 333 332 331 330 329 329 327
294 294 294 293 293 292 292 292 292 292 292 292 291 291 291 291 291 291 291 291 291 291 291 291 292 292 293 293 293 293 293 293 294 294 294 295 295 296 296 296 296 297 297 297 297 298 298 299 299 299 299 299 299 299 300 306 315 322 324 325 325 324 323 324 325 327 328 329 329 330 332 334 336 336 337 337 336 335 334 332 331 331 330 329 328
293 293 293 293 292 292 292 291 291 291 291 291 291 291 291 291 291 291 291 291 291 291 291 291 291 292 292 292 293 293 293 293 293 294 294 294 295 295 295 296 296 296 296 296 297 297 297 297 298 298 299 299 299 299 299 300 304 312 320 324 325 325 324 322 323 325 326 326 328 329 330 332 333 335 336 336 335 335 334 332 331 330 330 329 328
293 293 292 292 291 291 291 291 291 290 290 290 290 290 290 290 290 290 290 290 291 291 290 290 291 291 292 292 292 292 293 293 293 293 294 294 294 295 295 295 295 295 295 295 296 296 297 297 297 297 298 299 299 299 299 299 299 303 310 318 323 325 325 324 323 323 325 325 325 326 328 329 331 334 336 335 335 335 333 332 331 330 330 329 328
292 292 292 291 291 291 290 290 290 290 290 290 290 290 290 290 290 290 290 290 290 290 290 290 290 290 291 292 292 292 292 292 292 293 293 293 294 294 293 293 294 294 294 294 295 295 296 296 296 297 297 297 298 298 298 298 299 299 301 308 317 322 324 325 324 322 323 325 324 325 326 326 329 334 336 335 335 335 333 332 331 331 330 329 328
292 292 291 290 290 290 290 290 290 290 290 290 290 291 291 290 290 290 290 289 289 289 289 289 289 289 289 290 291 292 292 291 292 293 294 294 293 292 292 292 293 293 293 294 294 294 295 295 296 296 296 297 297 298 300 300 301 303 302 300 306 317 323 324 325 323 321 324 325 325 326 325 328 333 337 336 335 334 333 332 332 331 330 329 329
291 291 290 290 290 290 290 290 290 290 290 290 290 290 290 290 290 289 289 289 289 289 288 288 288 288 288 289 290 290 291 292 293 294 293 292 291 291 291 292 292 292 292 293 293 293 294 294 295 295 295 297 298 299 303 306 307 307 308 304 300 307 319 323 325 325 322 322 323 324 325 326 327 332 336 337 335 334 333 333 332 331 330 329 328
291 290 290 290 290 290 290 290 290 290 290 290 290 290 290 290 289 289 289 289 289 288 288 288 288 287 287 288 288 289 291 292 292 292 291 290 291 291 291 291 291 292 292 292 292 293 293 294 294 294 295 295 296 297 300 306 310 310 311 311 304 299 308 316 322 325 324 322 323 323 323 324 326 330 334 336 336 335 334 334 333 332 331 329 328
290 290 290 290 290 290 290 290 290 290 290 290 290 290 290 289 289 289 289 288 288 288 288 288 287 287 286 287 287 289 290 290 289 291 291 290 290 290 290 291 291 291 291 291 291 292 292 293 293 294 294 294 295 295 296 299 306 311 314 314 310 301 300 309 318 323 325 324 322 323 324 324 324 328 333 335 335 336 335 335 333 331 331 330 328
290 290 290 290 290 290 290 290 290 290 290 290 290 290 290 289 289 289 288 288 288 288 288 287 287 287 287 286 286 287 288 287 287 289 290 289 290 290 290 290 290 290 291 291 291 292 292 292 293 293 294 294 294 295 295 295 297 303 311 316 316 308 299 305 315 319 323 326 323 322 324 325 324 324 331 335 335 335 335 335 333 331 331 330 328
290 290 290 290 290 290 290 290 290 290 290 290 290 290 290 289 289 289 288 288 287 287 287 287 287 286 286 286 286 286 285 286 286 287 288 289 289 289 289 290 290 290 290 291 291 291 291 292 292 293 293 293 294 294 294 295 295 296 301 309 316 314 304 306 316 317 319 324 324 323 323 324 325 323 327 334 336 336 336 335 333 332 331 330 328
290 290 290 290 290 290 290 290 290 290 290 290 290 290 289 289 289 288 288 288 287 287 287 287 287 286 286 286 286 285 285 285 285 285 285 287 289 289 289 289 290 290 290 291 291 291 292 292 292 292 292 293 294 294 295 296 296 295 296 299 306 313 311 310 314 317 317 320 322 323 324 325 326 325 327 333 336 336 337 336 333 332 331 330 328
290 290 290 290 290 290 290 290 290 290 290 290 289 289 289 289 288 288 287 287 287 286 286 286 286 286 286 286 286 285 285 284 284 284 284 286 287 288 289 289 289 290 290 291 291 291 292 292 291 292 293 294 294 294 295 296 296 295 296 296 297 305 314 313 312 315 315 316 320 322 323 326 327 326 328 333 336 335 335 336 334 332 331 329 328
290 290 290 290 290 290 289 289 289 289 289 289 289 289 289 288 288 287 287 286 286 286 286 286 286 286 286 286 286 285 284 284 284 284 285 286 287 288 288 289 289 290 289 290 290 291 292 293 293 292 294 295 295 295 295 295 296 295 296 297 296 299 311 315 314 314 313 313 317 320 321 325 327 327 325 328 333 335 334 335 335 333 331 330 328
289 289 289 290 289 289 289 289 289 289 289 289 289 288 288 287 287 286 286 286 286 285 285 286 286 286 286 286 286 285 284 283 284 284 285 285 286 287 287 288 288 289 289 289 290 291 292 293 293 293 294 296 296 296 296 296 297 299 298 298 296 296 307 316 317 317 315 312 314 318 321 322 325 327 326 325 330 334 334 335 335 334 331 330 328
289 289 289 289 289 289 289 289 289 289 289 288 288 288 287 286 286 286 286 285 285 285 285 285 285 286 286 285 285 284 284 283 283 283 283 283 284 284 285 286 287 288 288 288 289 290 290 291 291 292 293 296 296 296 297 297 297 298 298 297 296 295 300 311 317 318 319 316 313 314 319 321 323 326 327 326 329 333 335 335 335 333 331 330 328
289 289 289 289 289 289 289 289 289 289 288 288 287 287 286 286 286 285 285 285 285 285 285 285 285 286 286 285 284 283 283 283 282 282 281 281 282 282 283 284 285 286 287 287 288 289 289 289 290 290 292 294 296 296 296 297 297 297 297 297 296 296 297 304 312 316 319 320 317 314 315 319 322 324 326 326 327 329 333 335 335 333 331 329 328
288 289 289 289 289 289 289 289 289 288 287 287 286 286 286 285 285 285 285 285 285 285 285 285 285 285 285 284 283 282 282 281 281 280 280 280 281 281 282 283 284 285 285 286 287 288 288 288 289 290 291 293 295 295 296 296 296 297 297 297 296 296 296 299 305 312 317 320 320 318 315 317 322 324 324 326 325 326 330 332 333 333 330 329 328
288 288 288 289 289 289 289 288 288 287 287 286 286 285 285 285 285 285 285 285 285 285 285 285 285 285 284 283 282 282 281 280 280 280 280 280 280 281 281 282 282 283 284 284 285 286 287 288 288 289 290 292 294 295 295 296 296 296 297 298 297 296 297 298 302 308 314 319 322 321 318 317 321 324 323 324 326 326 330 331 331 332 330 329 328
288 288 288 288 289 288 288 288 287 286 286 285 285 285 285 285 285 285 285 285 285 285 285 284 284 284 283 282 280 280 281 279 279 279 279 279 279 280 280 280 281 281 282 283 284 285 286 287 288 288 289 290 292 293 294 295 296 296 296 296 296 295 296 299 303 307 311 316 320 322 320 317 319 323 323 323 326 329 331 331 331 331 330 328 328
288 288 288 288 288 288 288 287 286 286 285 285 285 284 284 285 285 285 285 285 285 284 284 283 282 281 280 280 279 279 279 279 278 278 278 278 278 278 279 279 279 280 280 282 283 284 285 286 287 288 289 290 291 293 294 295 296 296 297 297 298 298 297 298 304 309 311 314 319 321 321 318 318 322 323 322 326 330 331 330 331 331 330 328 327
288 288 288 288 288 287 287 286 286 285 284 284 284 284 284 284 285 285 285 285 284 283 282 281 280 279 278 278 278 278 278 278 277 277 277 277 277 277 277 278 278 278 279 281 282 283 283 285 286 287 288 290 292 294 295 296 296 297 298 300 301 302 303 301 303 307 309 313 318 321 320 319 319 322 322 321 324 329 331 331 331 331 330 329 327
288 288 288 288 287 287 286 285 285 284 284 284 284 284 284 284 284 284 285 284 283 283 282 281 279 278 277 277 277 277 277 277 277 277 277 277 277 277 277 277 278 278 279 280 281 282 282 283 285 285 287 288 290 292 294 296 296 297 298 298 297 300 303 304 304 304 306 311 316 320 321 319 320 322 321 320 324 326 330 332 332 331 331 329 327
288 288 287 287 287 286 285 285 284 284 284 284 284 284 284 284 284 284 284 284 283 282 282 280 278 277 276 276 276 276 276 276 276 276 276 276 276 276 276 277 277 277 278 279 279 280 281 282 284 285 286 287 288 290 293 295 295 296 297 296 294 295 299 303 305 306 307 310 314 317 321 320 320 322 319 319 324 326 328 331 332 331 330 329 327
288 287 287 287 286 285 285 284 284 284 283 283 283 283 284 284 284 284 284 283 282 282 281 279 277 275 274 275 275 275 275 275 275 275 275 276 276 276 276 277 277 277 278 278 279 280 281 282 283 284 285 286 286 288 290 293 294 295 297 297 294 293 295 299 304 308 309 311 313 315 320 320 320 322 319 318 323 326 327 329 331 331 329 328 327
287 287 287 286 286 285 284 284 283 283 283 283 283 283 284 284 283 283 283 282 281 281 279 277 275 273 273 274 274 274 274 274 274 275 275 275 275 275 276 276 276 276 277 278 279 280 281 282 283 284 285 286 287 287 288 291 294 295 297 297 295 293 295 297 301 308 311 312 313 315 318 320 320 321 319 317 323 326 326 328 329 330 329 328 327
287 286 286 286 285 284 284 283 283 283 283 283 283 283 283 283 283 282 282 281 280 279 277 275 273 273 273 273 273 273 273 274 273 273 274 274 275 276 276 276 276 276 276 277 278 279 281 282 283 285 285 287 288 288 289 292 294 295 296 296 295 294 295 296 300 306 311 312 314 315 317 319 320 321 320 319 323 326 327 328 329 330 329 328 327
286 286 286 285 284 284 283 283 283 283 283 283 283 283 283 283 282 282 281 280 278 276 274 273 271 272 272 272 272 273 273 273 273 273 273 273 274 275 276 276 276 276 277 278 278 279 280 281 283 284 285 287 288 289 290 293 295 296 296 296 295 294 294 296 299 305 310 312 314 316 318 319 320 320 320 320 323 326 327 328 328 329 329 328 327
286 286 285 284 284 283 283 283 283 283 283 283 283 283 283 282 282 282 280 278 276 274 273 272 272 272 272 272 272 272 272 273 273 273 273 273 274 275 276 276 276 277 277 278 279 280 281 282 283 284 285 286 288 289 291 293 295 296 296 296 295 294 294 295 299 305 310 311 313 316 318 320 320 320 321 322 324 326 327 328 327 327 328 328 326
286 285 284 284 283 283 283 283 283 283 283 283 283 282 282 282 281 281 279 276 274 273 272 272 272 272 272 272 272 272 272 273 273 274 274 274 274 274 275 275 276 276 277 277 278 280 280 282 283 285 285 286 287 289 291 293 295 296 296 296 295 294 295 296 298 304 309 310 312 315 319 320 320 320 321 322 325 326 327 329 328 326 326 327 326
285 284 284 283 283 283 283 282 282 283 283 283 283 282 281 281 281 279 277 274 273 272 272 272 272 272 273 273 273 273 273 273 274 274 274 274 275 275 275 275 275 275 276 276 277 279 279 280 282 284 285 287 288 290 292 294 295 295 295 295 295 295 296 296 298 304 307 308 311 316 319 320 319 320 321 321 324 326 327 328 328 326 325 325 325
284 284 283 283 283 282 282 282 282 282 283 282 282 281 281 281 280 278 275 273 272 272 272 272 273 273 273 273 274 274 274 274 275 275 275 275 275 275 275 275 275 275 276 276 277 278 279 280 281 282 284 287 289 291 293 294 295 295 295 295 296 296 297 297 298 302 306 306 309 316 320 321 320 320 320 321 323 325 327 328 328 327 325 324 324
284 283 283 282 282 282 282 282 282 282 282 282 281 281 281 281 279 276 273 272 273 273 273 273 274 274 274 274 275 275 275 275 275 276 276 275 275 276 276 276 275 276 276 276 277 278 279 281 282 282 283 285 289 292 293 294 294 294 295 296 296 296 297 298 298 302 304 304 307 316 322 321 320 321 321 322 324 325 326 327 328 327 325 324 323
283 283 283 282 282 282 282 282 282 282 282 282 281 281 280 280 278 275 273 273 273 274 274 274 275 275 275 275 276 276 276 276 276 276 276 276 276 276 277 277 277 277 277 277 277 278 279 280 282 283 284 286 289 291 293 293 293 294 295 295 295 296 297 298 299 302 305 304 306 316 323 321 320 321 321 323 324 325 326 327 327 326 324 324 323
283 283 282 282 281 281 281 282 282 282 282 281 281 281 281 280 278 275 274 274 274 275 275 275 275 276 276 276 276 276 277 277 276 276 277 277 277 277 277 278 278 278 278 278 278 278 279 280 281 283 285 287 290 291 292 292 293 294 294 295 295 296 297 298 299 301 304 305 308 317 322 321 321 321 322 324 324 325 326 325 325 325 323 323 322
283 282 281 281 281 281 281 281 281 281 281 281 281 280 281 280 278 275 274 275 275 275 275 276 276 276 276 276 277 277 277 278 278 277 277 278 278 278 278 278 279 279 279 279 279 279 280 280 281 281 283 285 288 291 292 292 292 293 293 294 295 295 297 299 299 301 303 304 310 318 321 320 322 322 322 323 324 325 326 324 324 324 323 322 320
282 281 281 281 281 281 281 281 281 281 281 281 281 280 281 280 278 275 274 275 275 275 275 275 275 276 276 276 276 276 277 277 277 278 278 278 278 278 278 278 279 279 279 280 280 280 280 280 281 282 282 283 286 289 291 291 292 292 292 293 294 295 296 297 298 299 301 302 308 317 321 320 322 322 321 321 322 324 324 323 324 324 322 321 319
281 281 281 281 281 281 280 281 281 281 280 280 280 280 280 280 277 275 275 275 275 275 275 275 275 275 275 275 275 275 276 276 277 277 278 278 278 278 278 278 279 279 279 279 279 279 279 280 280 281 282 283 284 287 289 291 291 291 292 293 294 294 295 296 296 298 300 301 304 314 320 319 320 321 320 320 321 322 322 322 323 323 322 320 318
281 280 280 280 280 280 280 280 280 280 280 280 280 280 280 278 276 274 275 275 274 275 275 274 275 275 275 275 275 275 276 276 277 277 278 278 279 279 279 279 279 279 279 279 279 279 279 279 280 281 282 283 284 286 287 289 291 291 291 292 293 294 293 295 296 297 300 302 303 310 318 318 319 320 319 319 320 321 321 322 322 322 321 319 318
280 280 280 280 280 280 280 279 280 280 280 280 280 280 279 276 274 274 274 274 274 274 274 274 275 275 275 275 275 275 276 276 276 277 278 278 279 279 280 280 280 280 279 279 279 279 279 279 280 281 282 283 284 286 287 289 290 290 291 291 293 293 292 293 295 297 300 302 303 309 317 318 318 320 319 319 320 319 319 320 321 320 320 318 317
280 279 279 279 279 279 279 279 279 279 279 279 279 279 277 275 274 274 274 274 274 274 274 275 275 275 275 275 275 276 276 276 276 277 278 278 279 279 280 280 280 280 280 280 279 279 279 280 281 282 283 284 284 286 287 289 290 290 290 291 292 292 292 292 294 296 299 302 303 309 316 317 317 319 318 318 319 319 318 319 320 319 317 316 314
279 279 279 279 279 279 278 278 278 278 279 279 278 278 276 274 273 274 274 274 274 274 274 275 275 275 275 276 276 276 276 276 277 277 278 279 279 279 280 280 280 280 280 280 280 279 279 280 281 283 285 285 285 286 287 289 289 290 290 290 291 292 291 292 293 295 299 302 304 309 315 317 317 318 318 317 318 318 318 319 318 318 316 315 314
279 278 278 278 278 278 278 278 278 278 278 278 277 277 275 273 273 274 274 274 274 275 275 275 275 275 275 275 276 276 276 277 277 278 278 279 280 280 280 281 281 281 281 281 280 280 280 281 282 283 285 286 286 286 287 288 289 289 290 290 291 291 291 292 293 294 296 301 305 310 315 317 317 317 317 317 315 315 317 318 318 318 318 318 317
Wind_Speed
17 18 19 20 21 23 24 26 26 27 27 27 27 27 28 28 28 29 29 29 29 30 30 31 31 32 32 31 31 30 29 28 28 29 31 33 35 36 38 40 42 43 44 45 45 45 44 45 44 42 42 42 42 41 42 41 40 40 39 40 40 40 41 42 42 41 40 41 43 43 44 47 48 46 44 43 42 39 38 38 35 34 33 33 32
18 18 19 20 21 23 25 26 28 29 29 29 30 29 30 30 30 30 31 31 31 31 32 32 32 33 34 34 34 34 33 32 31 31 31 32 33 36 37 38 40 42 44 45 46 46 45 46 45 44 42 43 43 43 43 43 43 42 41 41 41 40 40 41 41 42 43 43 44 44 44 48 49 48 47 47 45 42 41 40 37 35 34 33 34
17 18 19 20 21 22 24 26 28 29 30 30 31 31 31 30 31 31 31 31 31 32 32 33 33 33 34 34 35 36 37 37 36 35 34 34 34 34 36 37 38 40 43 45 47 48 47 47 46 46 44 43 43 44 45 45 44 45 44 42 41 41 40 41 42 43 44 45 45 46 46 48 48 48 49 49 46 44 43 41 39 37 35 35 35
17 18 19 20 21 22 24 25 27 29 30 31 31 32 32 32 33 32 32 32 32 32 33 34 34 34 35 35 36 36 37 38 39 39 38 38 37 36 36 36 37 38 40 43 46 49 49 48 47 47 47 46 45 45 45 46 46 46 47 45 42 42 42 42 42 43 44 45 46 46 48 51 52 49 50 50 48 46 46 45 40 38 37 36 36
18 19 21 21 22 23 24 25 27 28 30 31 32 33 33 33 34 34 34 35 35 35 35 35 36 36 36 36 37 37 37 38 39 40 40 40 40 40 40 39 38 38 38 40 42 47 50 51 49 48 48 49 49 47 45 46 47 47 47 47 45 44 43 43 43 43 43 44 46 47 49 55 58 55 54 53 51 50 49 47 42 40 40 38 37
18 20 21 22 23 24 25 25 26 28 29 31 32 33 33 34 34 35 35 35 36 37 38 39 39 39 39 39 39 39 39 39 40 40 41 41 41 41 42 42 42 41 40 39 39 42 46 50 52 50 48 48 50 50 48 46 47 48 48 48 48 46 44 43 43 43 43 43 46 47 51 59 64 62 59 57 54 53 51 48 44 43 42 40 38
18 19 21 22 23 24 25 25 26 27 29 30 31 32 33 33 34 35 36 36 37 37 38 40 41 42 42 42 42 42 42 42 42 42 42 42 42 41 41 42 43 44 44 43 41 40 41 45 50 51 51 49 49 51 51 49 47 48 48 48 49 48 47 45 43 43 42 42 44 47 52 57 62 63 60 60 58 56 54 50 47 45 43 41 40
18 20 21 22 23 24 25 25 26 27 29 30 31 32 33 33 34 35 36 37 37 38 38 40 42 43 43 44 44 44 45 45 45 44 44 44 44 44 43 42 43 43 44 45 45 43 41 41 45 49 51 51 50 51 53 52 49 48 48 49 50 50 49 47 45 43 41 41 43 46 51 54 57 59 59 60 61 59 56 53 50 47 45 42 41
19 21 22 23 24 24 25 26 27 28 30 30 31 32 33 34 34 35 36 37 38 39 40 41 42 43 45 46 46 46 47 47 47 47 47 47 46 46 46 45 44 43 43 43 45 47 45 43 42 45 48 51 52 51 53 54 52 50 50 49 49 50 49 48 48 46 42 40 43 46 49 53 58 62 63 62 62 61 58 55 52 48 46 44 43
20 22 23 24 24 25 26 27 28 29 30 31 32 33 34 35 35 36 36 37 39 40 41 43 44 46 47 47 47 48 48 48 48 48 48 48 48 47 47 47 46 44 43 42 42 44 46 46 44 44 45 48 51 51 52 54 55 54 52 50 49 49 49 48 49 49 46 43 43 45 48 51 56 61 67 67 62 60 59 56 53 50 48 46 44
21 22 23 24 24 25 26 27 28 30 31 32 32 33 34 35 36 37 37 38 39 40 42 43 45 47 48 49 49 49 50 50 51 50 49 49 49 49 47 45 44 44 44 44 44 42 42 44 45 45 45 45 47 49 51 52 55 57 57 54 51 49 49 48 49 50 50 47 45 44 46 48 52 55 62 67 63 59 59 57 54 52 50 48 45
21 23 24 24 24 25 25 27 28 30 31 32 32 34 34 35 37 38 39 40 41 42 42 43 46 49 50 51 51 51 53 52 51 50 50 50 48 45 44 44 45 47 48 49 49 48 45 44 44 45 46 46 45 46 49 51 53 55 58 58 54 51 50 49 49 51 51 50 48 46 47 48 50 52 55 61 63 60 59 58 55 53 51 49 47
22 23 24 24 24 24 25 27 28 30 31 33 34 35 36 37 39 39 41 42 43 43 43 44 46 48 51 54 55 54 52 51 52 52 49 46 43 43 47 50 54 54 53 51 50 50 50 48 47 46 46 46 46 45 45 48 51 53 56 59 58 54 52 50 48 51 52 51 49 48 49 48 49 51 52 56 61 61 61 59 56 54 53 51 50
22 23 23 24 24 24 25 27 28 30 33 34 36 37 37 39 39 40 42 42 43 43 43 44 43 46 50 54 57 56 55 51 48 45 39 38 43 49 54 53 53 53 52 52 52 51 52 51 49 48 46 45 44 44 42 42 46 49 51 56 59 56 54 53 49 49 52 53 52 50 49 49 49 51 53 56 59 61 61 57 54 55 55 54 52
22 23 23 23 23 24 26 28 30 31 34 36 36 37 37 38 39 41 42 42 43 43 44 43 43 46 43 40 45 53 58 47 32 32 38 45 52 52 53 53 51 53 53 55 56 54 54 53 51 50 48 45 42 40 37 35 38 44 47 49 54 56 55 55 52 49 49 52 54 53 52 50 49 51 56 60 60 62 61 56 54 57 58 57 55
22 22 23 23 23 25 27 29 30 32 34 35 36 37 38 39 39 40 42 43 44 44 44 44 44 44 36 32 37 36 38 36 37 50 54 51 53 48 49 55 55 55 55 55 55 54 53 53 53 52 49 49 49 45 39 35 35 38 42 45 48 54 58 57 54 52 50 50 52 54 54 53 51 51 57 61 61 62 61 57 58 60 59 58 56
21 22 22 23 24 25 28 29 31 32 34 36 37 37 38 39 40 40 41 42 44 45 45 45 45 43 37 34 29 21 27 39 49 62 61 52 52 54 54 54 53 53 53 56 57 56 55 54 55 55 54 54 53 51 47 44 41 38 39 42 46 49 55 58 57 55 52 51 51 53 55 55 53 52 57 62 62 63 63 60 61 61 59 59 58
21 21 22 23 24 26 28 30 31 33 34 36 37 38 39 40 40 41 41 41 43 45 46 46 45 45 43 38 30 27 37 46 43 48 61 64 60 57 57 54 52 52 54 56 58 57 55 54 55 56 56 55 54 54 53 51 50 47 41 39 42 45 51 56 58 57 54 52 51 52 55 55 55 54 57 64 66 66 65 64 64 61 58 61 63
20 21 22 23 24 25 27 29 31 33 34 36 37 38 39 40 41 41 42 42 42 45 46 47 46 45 44 42 40 38 40 43 40 39 50 64 67 62 59 58 57 56 57 56 55 58 60 58 56 57 57 56 55 56 55 55 54 54 52 47 41 42 48 53 56 58 56 54 51 52 55 56 57 57 58 64 70 70 69 67 67 63 61 63 65
20 21 22 23 24 26 28 30 32 34 35 37 38 39 40 41 42 42 43 44 43 45 46 47 47 46 45 45 45 43 40 40 43 40 37 47 64 68 61 58 57 57 58 56 55 55 57 60 59 57 57 57 56 54 51 52 54 54 56 56 50 43 46 50 52 56 57 56 54 51 55 57 58 59 59 64 71 73 71 70 68 65 65 65 64
20 21 22 23 25 26 29 31 33 35 36 38 39 40 42 42 43 44 44 45 45 46 47 47 48 48 48 47 46 44 43 42 41 40 37 38 49 63 64 57 56 62 61 55 57 55 50 55 61 57 54 53 54 53 49 48 54 57 56 58 57 49 46 49 51 55 57 58 57 53 54 57 57 57 59 65 73 76 74 72 70 68 67 66 63
20 21 21 23 25 27 30 31 33 35 37 39 40 41 43 43 44 45 45 46 46 46 47 48 48 49 48 48 48 45 43 43 39 34 33 34 39 53 64 59 52 62 67 58 56 56 48 45 50 54 50 46 47 49 51 50 52 55 54 55 57 54 49 46 49 55 57 58 59 55 54 57 57 56 58 63 71 78 77 74 73 70 69 68 64
20 21 22 23 26 28 30 32 34 36 38 40 41 42 43 44 45 45 46 46 46 46 47 48 49 50 50 48 49 48 44 45 43 36 32 33 35 42 57 63 55 57 67 63 54 51 47 42 44 49 48 45 45 46 48 47 44 45 49 52 55 57 54 47 44 51 57 59 61 58 55 56 58 57 57 59 65 76 79 75 73 74 72 70 66
21 22 23 25 27 29 31 33 35 38 39 41 42 43 43 44 45 45 46 45 45 46 47 49 49 50 51 50 49 49 48 48 48 46 42 40 37 38 47 57 60 65 67 57 49 51 52 51 53 53 47 43 43 42 42 43 43 44 48 52 55 57 59 53 45 44 53 60 62 62 58 55 58 59 57 57 61 72 83 81 78 79 77 72 68
22 23 25 26 29 31 33 35 38 39 41 41 42 42 42 43 43 44 45 45 46 47 48 49 50 51 52 52 49 49 50 50 48 47 45 40 36 37 42 43 48 66 69 48 38 47 56 58 57 56 50 44 42 43 43 43 45 45 44 48 53 57 60 61 54 43 47 58 63 63 61 56 57 61 59 58 59 65 80 89 86 83 79 74 71
23 24 26 28 30 33 36 38 40 41 41 42 41 41 41 41 42 43 44 45 46 48 49 50 51 52 52 51 50 49 48 46 44 42 39 35 34 35 37 36 37 52 64 54 39 39 52 62 60 55 50 45 43 45 44 43 44 44 43 44 49 55 58 63 62 51 45 54 63 63 62 58 56 61 62 59 60 59 69 85 85 79 75 70 68
25 26 27 30 32 35 38 39 41 41 41 40 40 39 39 40 42 43 44 46 47 49 51 51 52 52 51 50 50 49 46 41 35 35 34 33 35 34 32 33 36 43 52 54 47 41 46 55 57 53 49 44 42 42 43 43 44 44 42 41 46 52 56 59 63 59 51 51 61 63 61 60 57 60 63 60 60 58 61 75 76 70 70 67 64
27 28 30 32 35 38 40 41 41 41 40 39 38 38 38 40 42 44 46 47 49 51 51 51 52 51 50 49 45 44 47 40 31 29 30 29 31 34 33 33 34 39 43 43 44 45 43 41 45 49 47 45 46 45 44 45 45 44 44 44 46 48 52 56 59 60 57 52 57 62 60 60 59 59 63 61 59 60 63 74 76 68 68 67 66
28 30 32 35 37 40 41 42 41 40 38 37 37 38 39 42 44 45 48 49 50 52 50 49 50 46 46 44 34 32 39 35 27 26 26 26 27 29 31 31 31 36 40 40 41 44 39 33 36 42 40 38 41 42 42 42 42 41 42 42 40 39 43 51 54 57 58 54 57 63 59 59 62 60 62 64 61 62 66 75 79 73 71 73 71
29 31 34 37 39 41 42 41 40 38 37 37 37 39 41 43 46 47 49 50 50 51 49 48 46 42 41 38 30 30 34 29 26 28 26 27 30 31 31 32 33 36 39 40 43 44 39 33 34 38 38 34 33 35 37 38 38 38 41 41 38 36 36 42 49 52 55 53 55 63 60 57 61 61 63 65 64 65 69 76 80 76 75 78 76
31 33 35 38 40 41 41 40 39 37 37 37 38 40 42 44 47 48 50 50 50 51 49 47 46 43 37 33 32 35 35 31 30 32 31 32 33 33 34 34 35 39 41 42 47 49 42 36 36 37 38 38 38 39 38 38 40 40 43 46 44 41 39 40 47 51 53 52 54 62 63 58 59 61 63 66 66 67 72 79 82 80 80 80 76
31 34 37 39 40 40 39 38 37 37 37 38 40 42 44 46 47 48 50 50 50 51 50 47 45 41 33 30 34 37 33 32 33 33 32 33 32 33 35 34 36 40 42 43 49 53 48 43 42 41 40 39 40 43 43 41 41 42 45 48 47 45 43 42 46 50 54 55 55 60 63 60 59 61 64 67 68 68 72 79 82 82 82 81 77
32 35 37 39 39 39 38 36 37 37 38 40 41 43 45 47 48 49 49 49 49 49 49 48 41 32 27 28 32 35 32 32 34 33 31 32 33 35 36 35 38 42 43 43 46 50 49 45 42 42 42 40 43 49 49 45 44 44 43 44 46 47 46 44 45 46 51 56 55 57 61 61 59 61 65 67 68 69 72 78 82 81 82 83 79
33 36 37 38 38 37 36 36 37 38 39 41 42 44 45 47 47 48 49 48 48 47 46 46 36 24 25 30 30 30 32 33 35 35 34 34 34 36 36 35 38 42 41 41 43 45 47 45 41 41 42 40 43 50 51 48 47 45 41 40 46 49 46 44 45 44 45 51 53 55 60 62 59 60 65 68 69 70 72 77 82 83 84 85 82
34 35 36 36 36 35 35 36 37 39 40 41 43 44 45 46 46 47 48 46 45 44 42 38 29 23 27 32 31 28 29 32 34 35 37 37 34 35 37 36 38 42 41 41 45 46 48 48 41 39 39 38 41 47 48 48 48 43 41 43 47 49 45 42 44 44 43 46 49 53 60 62 60 61 65 67 69 70 73 77 84 87 87 86 86
34 35 35 34 34 34 35 36 38 39 41 41 43 44 44 45 46 47 47 45 42 40 37 31 26 25 28 32 33 31 30 33 34 34 35 36 35 35 37 37 38 40 40 40 43 44 47 50 46 42 39 38 43 47 46 46 43 38 40 43 43 47 46 41 42 44 43 44 46 50 59 62 60 61 64 66 68 70 73 78 84 90 93 91 89
33 33 32 32 32 33 34 36 38 39 41 42 43 44 45 45 46 47 46 44 40 34 29 28 28 29 31 33 34 32 33 35 36 36 37 35 35 36 38 39 39 40 41 42 43 43 43 44 45 44 43 42 46 49 46 43 39 35 38 40 40 45 45 41 41 43 42 44 43 48 57 61 60 60 63 65 67 69 72 76 78 83 93 98 94
31 31 30 30 31 33 34 35 37 38 40 41 42 43 45 45 45 45 43 40 35 31 31 33 35 36 36 37 37 35 36 37 37 39 40 37 37 38 39 42 42 41 42 44 47 50 49 46 41 38 41 45 47 49 48 41 36 33 34 36 40 44 42 40 42 42 42 42 41 48 58 62 61 60 62 65 67 67 69 73 76 76 85 98 98
29 28 28 29 31 32 34 35 37 38 39 41 42 42 43 44 44 42 40 38 37 37 40 42 41 41 41 41 41 41 40 40 39 40 41 41 40 38 37 38 37 36 36 37 40 45 50 53 50 44 40 41 43 47 46 37 33 34 34 36 41 42 37 38 40 42 44 42 39 47 60 63 61 60 61 64 67 67 67 70 75 75 78 91 96
27 27 27 29 30 32 33 35 36 37 38 39 40 41 42 42 41 40 38 39 39 39 40 42 42 43 44 44 45 46 45 44 43 42 42 42 41 40 38 35 33 34 35 34 34 36 38 43 48 48 44 41 41 43 40 33 32 34 32 30 35 37 34 36 38 41 45 41 36 47 62 63 60 60 62 65 67 68 68 70 74 76 79 87 91
25 26 27 29 31 32 33 34 35 36 38 38 39 40 40 40 39 38 37 38 39 40 41 42 43 44 44 45 47 48 47 48 47 44 42 42 43 43 42 38 36 36 36 36 34 33 33 35 36 40 44 45 41 38 36 32 30 30 27 27 32 34 35 37 38 42 45 39 36 47 64 64 60 60 63 67 70 69 69 71 75 78 84 90 91
24 25 27 28 30 32 33 34 35 36 37 37 38 38 38 38 37 36 37 39 40 42 44 45 46 46 45 44 45 45 45 48 49 44 41 42 44 46 44 41 41 41 43 44 41 35 35 35 33 33 39 42 39 35 33 30 28 27 26 29 33 33 33 35 39 44 45 39 38 49 63 63 60 59 63 69 72 72 72 74 77 82 89 93 92
24 25 27 28 29 31 32 34 35 36 36 36 37 37 37 35 33 33 36 39 41 42 44 45 46 45 44 42 42 42 42 45 47 46 44 44 43 45 45 44 44 45 47 49 46 41 38 37 35 35 37 37 33 32 30 26 25 26 26 28 32 32 31 31 35 43 42 33 34 47 60 60 60 61 65 71 73 74 75 76 80 86 91 93 91
24 25 26 28 29 30 32 33 34 36 36 36 36 36 36 34 32 31 34 38 40 43 43 43 43 42 42 40 40 40 38 39 42 44 45 45 43 43 45 46 46 46 46 47 47 45 42 40 38 39 42 39 33 29 27 26 26 26 26 29 30 30 31 29 32 41 39 29 31 47 59 59 61 63 66 72 74 75 78 80 85 91 93 93 90
24 25 26 27 28 29 31 33 35 35 36 35 35 36 35 34 32 30 35 38 39 41 41 40 40 39 40 40 40 40 38 38 40 42 42 43 42 42 43 43 46 46 45 46 47 46 45 45 43 43 45 45 39 30 24 26 29 29 29 32 33 31 31 31 32 39 39 34 33 45 58 58 62 65 63 66 71 75 79 83 89 94 94 94 91
24 25 26 27 27 28 30 32 34 35 35 34 35 36 35 34 32 32 36 37 37 38 38 37 38 38 39 40 41 41 39 38 39 39 40 41 42 42 42 43 47 48 45 45 44 44 45 47 48 47 45 46 47 38 27 26 29 30 30 32 35 35 35 36 35 36 37 37 35 38 54 56 60 64 62 63 69 75 81 87 93 96 94 91 90
24 25 26 27 27 28 29 31 34 35 35 34 34 36 35 34 33 33 36 36 36 37 38 37 38 38 38 39 40 40 39 38 37 37 38 41 43 44 45 47 50 50 47 45 41 38 40 41 43 45 44 44 49 46 36 29 29 30 31 34 36 36 37 39 38 36 36 37 33 33 49 55 58 63 63 66 72 76 82 89 93 96 94 90 89
23 25 26 26 27 28 29 31 33 35 35 33 33 35 34 33 32 34 36 36 37 39 40 40 39 38 38 38 39 40 40 39 39 38 39 41 43 47 48 49 51 51 51 49 42 39 40 39 38 40 42 43 47 45 38 33 31 31 33 35 38 36 37 40 39 38 37 35 31 32 48 57 59 64 65 68 73 74 79 89 93 92 91 88 86
23 24 26 26 26 28 29 30 33 35 35 33 33 34 33 31 32 35 36 37 39 41 42 42 40 39 38 37 38 40 41 41 41 40 40 40 43 46 48 49 51 52 53 52 45 40 41 39 37 38 41 44 46 43 37 35 34 32 33 35 37 35 34 38 39 39 36 34 33 33 48 58 58 63 65 66 71 74 77 84 88 87 86 85 83
23 24 25 26 26 27 29 30 31 34 34 34 34 34 32 30 32 34 36 39 43 44 44 43 41 40 40 39 39 40 43 44 43 42 42 41 43 46 47 48 50 51 52 50 42 37 39 37 34 34 37 42 46 46 42 39 36 33 33 35 36 35 35 38 39 39 37 35 34 30 46 60 58 62 66 63 63 72 80 83 83 84 84 83 83
23 23 24 26 27 27 28 30 31 32 34 35 35 34 33 31 31 34 37 40 44 46 45 44 44 43 42 41 40 39 41 43 43 43 42 42 43 45 46 47 50 51 51 48 40 34 34 34 32 30 29 33 41 47 49 46 42 41 40 39 39 39 38 38 37 38 37 36 32 25 43 64 63 62 67 63 51 55 72 80 80 82 84 83 84
Wind_Direction
347 346 343 341 339 337 336 334 334 332 332 331 331 331 331 330 330 329 327 326 325 324 323 323 322 321 320 318 316 313 308 304 299 294 290 287 284 279 274 270 267 266 265 265 265 263 260 256 255 256 257 256 257 257 256 255 255 255 255 257 257 257 256 254 254 252 250 246 240 238 232 224 223 223 219 217 215 215 216 220 222 223 223 217 212
345 344 342 340 339 338 337 334 333 332 331 331 330 330 330 330 329 328 327 326 325 324 323 322 321 320 319 318 317 315 313 310 306 301 297 292 289 285 281 276 270 266 264 264 264 264 262 259 256 255 256 257 257 256 255 254 254 254 254 255 257 257 256 255 253 250 248 245 241 239 233 224 222 223 220 217 216 214 215 220 222 222 222 217 212
340 340 339 338 338 337 336 334 332 330 329 329 328 328 328 327 326 325 325 324 323 323 322 320 319 318 317 317 316 315 314 313 310 308 304 300 295 290 286 282 277 271 266 263 263 263 263 262 259 256 254 255 256 255 255 254 253 253 254 255 256 256 256 254 253 251 249 247 244 241 237 228 222 221 218 215 215 214 215 219 221 222 222 218 213
335 336 336 337 337 336 334 332 330 329 328 327 326 326 325 325 324 323 323 321 321 320 319 318 317 317 316 315 314 313 313 313 311 310 308 305 302 297 292 287 283 277 271 265 262 262 262 262 261 258 255 253 254 254 254 253 252 252 252 253 254 255 255 253 252 252 250 249 247 242 237 232 226 222 218 217 217 216 217 218 219 222 222 219 214
334 334 335 335 334 333 332 330 329 327 326 326 325 325 324 324 323 322 322 321 321 320 319 317 316 315 314 314 312 312 311 310 310 309 308 307 305 302 298 294 289 284 278 272 266 262 261 261 261 260 257 254 253 253 254 254 252 252 252 252 252 253 255 254 250 251 251 249 249 244 238 232 228 224 220 219 220 218 216 217 219 220 219 218 215
332 332 332 331 331 330 329 327 327 326 325 324 324 323 322 322 321 321 321 320 320 319 319 318 316 315 314 313 312 312 311 309 308 308 307 306 305 303 301 299 295 291 286 279 272 266 262 260 260 260 258 256 254 253 253 253 253 252 251 251 252 251 253 256 253 249 248 248 248 246 243 236 227 223 221 218 218 216 215 217 218 218 217 217 216
329 329 328 328 328 326 325 325 325 324 323 323 322 321 321 321 321 320 320 319 319 319 318 317 316 315 315 314 313 313 311 309 308 307 306 305 303 302 301 299 297 295 292 287 281 274 267 263 261 260 259 257 254 252 252 252 253 252 251 250 251 251 251 254 255 251 247 247 248 246 247 240 225 218 218 218 216 214 215 216 216 216 217 217 216
326 326 325 324 324 323 323 323 324 324 323 322 322 321 321 321 321 320 320 319 318 318 317 316 315 314 314 313 313 312 311 310 309 308 307 305 304 303 301 298 297 295 293 291 288 282 275 268 264 261 260 258 255 253 251 250 252 252 251 250 250 250 250 250 254 254 250 248 247 245 247 245 231 219 216 218 217 215 214 215 215 215 216 217 216
324 323 322 321 321 321 322 323 324 324 324 324 324 323 323 322 322 321 320 320 319 319 318 317 315 313 312 312 312 312 311 310 309 308 307 305 304 303 302 301 298 295 293 292 291 288 283 277 270 265 262 260 257 254 252 250 249 250 251 250 249 249 249 249 251 253 252 248 248 245 244 245 239 226 218 217 216 213 212 213 213 214 216 217 216
322 321 319 318 319 320 322 324 325 325 325 325 325 324 324 323 322 321 321 320 319 319 318 317 315 313 312 312 312 310 309 309 308 308 307 306 304 304 303 302 301 298 296 293 290 289 287 284 278 272 266 263 260 257 254 251 249 248 248 249 249 248 247 247 248 250 250 248 248 246 243 243 241 232 221 214 212 213 212 213 214 214 215 216 215
319 317 315 315 317 319 322 324 325 325 325 324 324 324 323 323 322 322 321 320 319 318 317 316 315 314 313 312 311 311 310 309 309 308 307 307 306 306 304 303 302 301 301 298 295 291 288 287 285 280 273 268 265 261 257 254 251 249 248 248 248 249 248 246 245 247 249 247 247 247 243 242 244 241 227 213 209 212 212 212 213 212 213 215 214
315 313 313 313 315 319 322 325 325 325 324 324 324 324 324 324 323 323 321 320 319 318 318 317 315 314 314 314 312 311 311 310 310 309 309 308 307 306 305 304 303 302 303 303 300 296 293 290 287 284 280 274 270 267 263 258 254 250 248 248 247 247 248 247 244 244 246 246 246 246 244 243 244 244 235 219 211 210 210 212 213 211 213 215 214
310 310 311 312 315 320 323 325 325 324 324 323 324 325 325 324 323 322 321 320 319 319 319 318 318 317 317 315 313 312 312 312 312 311 311 310 308 307 307 306 305 304 304 303 301 299 298 295 292 288 285 281 277 274 270 265 261 255 250 248 247 246 247 247 245 243 244 244 244 244 244 244 243 239 234 226 216 211 209 210 211 212 213 214 214
307 307 308 311 315 320 323 324 324 324 324 324 324 324 323 322 322 321 320 319 318 319 318 318 319 318 318 317 315 316 314 313 314 314 313 310 307 306 305 305 303 303 303 301 299 298 297 296 295 292 289 286 282 280 278 272 265 261 256 250 247 246 245 246 246 243 242 243 243 242 242 242 241 236 230 227 223 217 211 209 210 212 213 213 214
305 305 306 310 316 320 323 323 324 324 324 323 322 321 320 320 320 319 318 318 317 317 317 317 316 316 319 317 316 317 314 315 318 309 304 302 302 302 301 301 300 299 299 298 298 297 296 294 293 292 290 287 282 279 278 274 266 262 260 255 249 246 244 243 244 244 242 241 242 241 241 240 238 236 232 228 226 222 217 214 214 213 213 213 212
302 303 306 312 318 321 323 324 324 323 321 319 318 319 319 318 318 317 316 316 315 315 314 314 314 315 317 312 313 314 307 310 311 301 301 303 302 302 301 300 300 299 298 296 295 295 294 293 292 291 289 287 284 277 270 265 265 263 260 259 254 248 245 243 242 243 243 240 240 240 239 238 236 234 231 229 227 224 221 219 216 212 212 214 212
301 304 308 314 319 322 323 323 322 320 318 317 317 317 317 317 316 315 315 314 313 313 312 312 312 311 309 307 309 304 293 304 308 303 302 303 302 301 300 299 299 298 297 295 295 294 293 292 292 290 289 289 288 283 273 263 261 261 260 261 260 252 245 244 242 241 242 241 240 240 238 237 235 233 231 229 227 224 222 220 216 211 211 214 212
302 306 310 314 318 320 320 319 318 317 315 315 315 316 315 315 314 313 313 312 311 311 310 311 310 308 307 304 299 292 294 301 305 302 301 301 300 299 299 297 296 295 295 294 294 293 292 291 291 290 290 290 288 285 281 272 262 256 254 256 261 258 246 242 243 241 240 241 241 239 237 235 233 232 231 228 226 225 222 220 218 214 212 213 210
301 304 308 311 315 317 316 315 314 314 313 313 313 313 313 312 312 311 310 310 309 308 308 308 307 305 305 304 299 295 294 295 295 297 300 301 299 298 297 296 296 295 294 293 291 291 292 290 289 289 289 289 286 285 283 278 270 260 253 249 252 258 251 243 243 244 241 239 240 238 236 234 232 231 230 226 223 222 220 218 217 213 210 210 208
301 304 307 311 314 315 314 313 313 312 312 311 311 311 310 310 310 309 309 308 307 306 305 305 304 303 301 301 299 296 294 291 290 289 289 293 296 297 296 295 295 294 293 292 291 291 292 291 291 290 289 288 285 285 282 277 275 269 260 252 247 250 251 245 243 245 244 241 239 237 236 233 230 229 228 226 223 220 218 218 217 212 208 208 208
301 303 307 311 314 314 313 312 311 311 311 310 309 309 309 309 308 308 307 306 305 303 302 301 300 300 300 299 297 294 292 289 287 284 278 278 287 292 294 294 293 292 290 290 289 288 287 288 290 289 286 285 283 282 278 273 274 272 265 258 251 245 246 246 244 244 246 244 240 236 236 234 230 228 227 226 224 221 218 218 219 214 209 208 209
299 302 307 310 311 311 310 310 309 309 308 308 308 308 308 308 307 306 305 304 303 301 300 299 298 298 298 297 295 292 289 286 283 278 272 268 273 283 290 291 289 290 290 288 287 286 284 281 285 286 282 277 277 277 276 275 275 274 267 260 254 246 243 244 244 244 245 245 243 238 236 235 231 229 227 226 225 222 219 217 216 213 210 208 206
298 303 306 308 308 308 308 308 308 307 307 307 307 307 307 306 305 304 303 301 300 299 298 297 298 298 298 296 295 292 287 283 281 276 267 264 266 274 283 287 286 286 287 287 284 281 279 274 274 279 277 272 270 271 274 274 270 266 261 256 252 245 242 242 244 245 244 244 244 240 235 235 233 229 228 227 226 224 221 217 214 211 208 205 202
302 306 307 308 308 307 307 307 307 307 307 307 307 307 306 305 304 302 300 299 298 298 298 298 299 298 298 297 294 291 287 284 282 279 273 268 267 267 275 283 285 285 285 284 281 279 277 274 274 275 271 268 268 267 268 267 264 265 264 259 252 245 241 241 243 246 244 243 244 241 237 235 233 229 226 226 225 225 223 218 214 210 205 202 202
304 307 308 309 309 308 309 308 308 308 308 308 307 306 305 303 302 300 299 298 299 299 299 299 300 299 299 298 293 290 288 286 283 278 274 269 265 264 268 273 277 282 284 281 276 277 277 276 276 275 270 265 264 264 264 263 264 267 269 265 256 246 241 240 242 246 245 243 243 242 239 237 234 228 225 225 223 224 224 218 210 207 203 199 200
303 306 307 308 308 308 308 308 308 309 308 308 307 306 305 302 300 299 299 300 301 301 301 301 301 300 299 297 294 291 287 284 281 274 269 265 260 262 268 269 267 274 280 280 274 271 274 276 276 273 271 266 263 265 264 262 264 266 268 272 264 250 242 240 242 245 247 243 241 242 239 236 235 228 224 225 222 223 225 218 208 203 202 199 198
303 306 307 308 308 308 308 309 309 309 309 308 307 305 304 302 301 300 301 303 303 303 303 302 302 301 299 296 292 289 285 279 271 265 261 259 259 261 263 267 269 271 274 277 275 266 266 273 273 271 269 265 260 262 262 261 265 265 265 273 270 255 244 241 242 243 247 245 240 240 239 235 233 228 222 222 221 221 221 217 210 204 200 199 199
305 307 309 310 310 309 310 310 310 310 309 309 307 306 305 303 303 304 305 306 305 304 304 303 302 300 298 294 287 283 283 276 264 259 259 255 257 260 259 259 264 270 274 275 274 270 265 266 269 270 268 263 261 261 262 263 264 263 266 273 272 261 249 242 241 241 244 245 240 239 239 235 232 227 220 218 219 218 215 213 211 207 204 204 201
306 309 311 311 310 310 311 311 311 311 310 310 308 307 307 307 307 308 308 307 306 305 304 302 301 299 295 290 279 275 279 274 263 260 259 257 258 257 256 255 254 261 270 273 271 271 269 265 265 268 268 267 268 265 260 262 263 263 266 269 265 259 254 247 242 240 241 243 241 238 237 235 232 226 219 216 215 215 214 211 209 208 209 209 204
307 310 311 311 311 311 311 312 312 312 311 310 310 310 310 310 310 309 309 308 307 306 304 302 300 296 291 284 274 272 276 271 266 264 260 259 259 256 254 254 252 252 259 268 271 269 272 271 265 266 268 265 265 264 261 260 261 259 257 257 255 253 251 245 242 241 240 241 240 237 237 235 231 223 216 214 214 213 213 211 209 207 207 206 203
309 311 312 311 312 312 312 312 312 312 312 312 313 313 312 312 311 310 310 309 308 306 305 302 298 293 287 279 274 275 274 269 265 264 263 260 257 256 256 253 251 253 256 263 269 269 270 272 269 268 268 264 261 262 263 262 260 260 259 259 260 259 252 243 238 237 237 239 241 238 236 235 230 221 214 213 214 213 212 209 207 206 204 202 200
310 311 311 312 312 312 311 312 312 312 314 315 315 315 314 313 312 311 310 309 307 306 305 302 298 292 283 275 276 278 273 267 265 263 262 261 257 256 257 256 253 256 256 257 263 268 268 269 270 269 267 265 264 259 255 258 261 260 262 264 266 265 261 250 238 233 234 236 239 238 234 233 229 219 212 213 214 214 212 208 205 205 204 202 201
311 311 312 312 312 312 311 312 313 314 316 317 317 316 314 313 312 311 310 309 307 306 304 301 297 287 278 276 277 278 272 264 264 265 263 260 259 258 256 256 256 258 259 256 260 267 269 269 268 268 268 264 265 261 253 255 262 261 263 268 269 269 268 258 242 234 233 233 235 236 233 232 230 219 211 212 214 214 213 211 208 206 203 202 201
312 311 312 312 312 312 312 313 315 317 318 318 317 316 315 314 313 311 310 309 308 305 302 300 294 279 276 279 279 280 276 269 264 264 264 262 262 260 256 255 258 261 261 259 261 266 269 271 268 268 269 263 264 266 257 256 263 262 260 266 270 270 270 262 248 237 234 233 232 234 233 233 231 221 212 212 214 215 214 212 210 207 204 201 200
312 312 312 312 312 312 313 315 317 318 319 318 317 316 315 314 313 311 310 309 307 304 300 296 286 276 279 282 282 282 282 280 273 266 265 264 263 261 259 257 260 264 264 263 266 265 266 270 270 268 268 262 262 263 257 258 262 259 260 266 268 269 270 264 251 241 236 234 233 233 233 232 231 223 214 212 214 215 215 214 210 208 206 202 199
312 312 312 312 312 312 314 316 318 319 319 318 317 316 316 315 314 312 311 310 307 303 297 288 279 278 280 282 285 287 287 287 285 278 273 268 263 263 262 261 263 266 268 269 269 267 267 266 266 267 267 265 264 260 258 265 263 256 261 266 267 270 271 266 254 243 237 235 236 237 233 230 230 224 215 213 214 215 215 214 210 207 206 203 199
312 312 312 312 311 313 316 317 318 318 318 318 317 317 318 316 315 314 313 312 307 299 291 287 287 287 285 283 285 288 288 287 286 287 284 276 269 265 263 263 264 265 266 266 265 263 265 265 263 263 263 262 263 260 261 267 263 258 264 266 267 272 273 268 255 243 237 235 237 241 236 231 229 224 216 214 215 215 215 216 213 208 204 202 198
311 311 311 311 312 314 316 317 317 318 318 318 319 319 319 317 316 316 313 308 302 294 291 295 298 297 293 289 287 286 286 285 286 289 289 285 278 272 270 269 269 267 266 267 266 262 261 264 266 266 264 261 261 262 264 264 259 260 267 269 272 275 276 273 258 241 237 239 242 243 237 231 227 223 217 214 215 217 216 215 216 212 204 198 195
311 311 310 311 313 315 316 317 318 318 319 320 320 320 320 318 317 316 311 307 303 300 299 300 301 301 299 295 291 288 285 284 286 288 288 287 284 279 274 271 269 268 266 268 272 267 263 262 264 267 270 267 262 263 266 262 256 261 266 271 277 278 280 278 261 241 238 244 248 245 236 229 227 224 219 216 216 218 218 215 214 213 203 195 192
310 310 310 312 314 315 317 317 318 319 320 321 321 321 320 319 318 316 312 308 304 299 298 298 297 298 298 294 293 290 285 284 287 289 288 286 285 284 278 271 267 267 266 268 271 271 268 264 262 263 266 267 265 266 265 259 257 262 266 272 278 281 286 283 265 246 243 250 256 245 232 227 227 224 220 218 218 218 218 216 213 211 203 194 190
309 309 310 314 315 315 317 317 318 320 320 322 322 321 321 321 320 316 309 305 302 298 298 297 294 294 293 290 290 288 285 286 289 290 290 283 276 279 280 273 267 267 267 268 269 269 271 269 265 263 262 264 267 268 264 259 258 263 267 273 278 282 289 286 267 248 245 257 263 241 226 224 225 222 219 218 219 219 217 214 212 208 200 192 189
308 310 312 315 315 316 317 318 319 320 321 323 323 321 322 322 319 315 308 305 304 301 300 299 297 295 292 288 287 285 283 285 285 284 288 285 274 273 276 270 266 267 270 272 270 267 269 269 270 270 265 264 267 267 265 261 260 263 268 275 278 283 290 289 274 254 245 257 262 235 221 222 224 220 218 217 217 217 214 211 208 203 195 190 188
308 311 314 314 315 316 317 317 319 319 322 324 323 321 323 323 319 314 309 305 303 301 299 299 296 294 293 288 286 284 281 281 280 278 283 286 276 270 269 266 265 266 267 270 269 266 266 266 268 269 264 263 268 267 262 261 261 263 269 276 279 284 288 287 280 263 251 261 262 231 218 222 223 219 217 216 215 213 210 206 202 196 191 188 186
310 311 314 314 315 317 316 317 318 320 323 325 323 321 323 325 323 314 306 303 302 300 299 297 294 291 291 287 285 284 280 277 278 278 280 281 276 271 269 266 265 265 263 265 266 265 265 264 265 265 261 260 267 268 261 260 264 266 270 273 275 282 287 284 283 273 262 266 258 226 216 221 221 217 215 212 211 209 205 200 195 191 187 186 184
310 311 313 314 315 316 316 317 318 320 324 324 322 322 325 329 328 316 305 302 300 299 297 296 293 290 289 288 285 283 280 277 277 277 276 275 273 273 271 268 268 269 266 263 262 262 263 262 262 264 262 259 261 266 267 265 267 268 269 271 271 277 284 284 286 282 270 269 259 224 211 216 216 211 208 205 203 202 198 194 190 187 185 184 183
309 312 313 313 315 316 316 318 318 320 324 324 323 326 330 334 330 315 306 303 300 299 298 296 294 290 288 288 286 283 281 279 278 276 274 273 271 270 271 272 277 277 273 268 263 261 261 259 258 259 261 260 256 258 268 269 267 268 268 272 275 277 282 281 282 284 273 270 266 226 205 206 206 202 199 196 194 194 191 189 187 184 183 182 182
310 312 312 313 316 317 318 320 319 320 324 326 328 331 335 337 329 315 307 305 301 300 301 299 295 291 289 287 286 285 283 280 278 276 275 274 273 271 271 275 280 280 276 273 267 262 261 258 256 256 257 258 254 253 261 265 266 269 269 272 275 278 285 283 279 281 271 263 263 231 201 194 195 193 190 187 186 187 186 184 183 182 180 181 181
310 311 312 314 317 319 321 321 320 322 325 329 333 336 338 337 326 314 310 307 305 303 305 304 298 292 290 287 285 285 283 280 279 276 276 275 274 274 272 273 278 278 277 277 271 267 266 260 257 256 255 255 253 251 256 260 262 269 270 271 273 275 286 287 283 285 275 259 260 237 200 187 186 185 181 180 180 180 180 179 179 179 178 179 180
309 310 311 314 318 320 322 323 322 324 327 333 338 341 341 335 321 314 312 311 309 308 308 307 301 295 293 289 286 286 284 283 280 278 278 276 275 275 273 273 276 275 277 279 274 272 274 264 255 258 257 254 253 251 253 257 260 266 270 272 273 276 286 289 286 289 280 264 267 245 199 182 180 178 173 173 175 174 174 174 175 176 178 179 181
308 310 312 316 320 322 323 324 325 326 330 337 343 344 343 335 321 315 315 314 312 312 312 309 304 299 296 292 290 288 285 285 283 280 279 277 275 276 273 271 273 271 274 278 272 272 278 266 253 259 259 254 253 250 248 252 256 259 263 267 271 275 282 284 285 290 283 270 272 247 193 176 173 171 165 165 168 170 170 171 173 177 179 180 182
309 313 315 318 321 325 325 325 328 332 336 342 345 346 344 337 325 318 318 316 315 314 314 311 306 303 300 296 294 291 287 286 285 283 281 278 275 275 273 271 270 269 271 274 269 269 275 265 256 260 259 253 251 247 244 248 252 253 256 262 267 271 275 277 281 289 285 273 270 240 184 170 168 166 161 157 157 162 167 170 172 176 178 180 181